sat.trackr.live / text

‹ back to catalog

STARLINK-2104

NORAD 47384 · 2021-005AM

PAYLOAD ACTIVE UNKNOWN

§ Identity

Operator
Country
US
Launch date
2021-01-20
Launch site
AFETR
Launch vehicle
Mass (kg)
RCS (m²)

Purposes: comms

External: N2YO · Heavens-Above · Gunter

§ Orbital elements

Epoch: 2026-05-25T02:10:35.679936Z

Period
94.16 min
Inclination
53.1560°
Eccentricity
0.0001145
Mean motion
15.29364495 rev/d
Perigee alt
476.9 km
Apogee alt
478.5 km
Semi-major
6,855.8 km
B*
6.8497e-5
RAAN
41.8107°
Arg perigee
99.5325°
Mean anomaly
260.5805°
Rev number
29,508

§ Raw data

STARLINK-21041 47384U 21005AM  26145.09069074  .00001622  00000+0  68497-4 0  99952 47384  53.1560  41.8107 0001145  99.5325 260.5805 15.29364495295081

JSON: /api/v1/satellites/47384 · /tle

For live sub-satellite position, see the globe view (requires WebGL).

§ Visibility from observer

Set your observer location to see the next 7 days of passes ≥ 10°. The values pass through the URL so the page stays shareable.

No JS? Fill the form by hand. The geolocation button needs JavaScript.